Weather History for Grand Island, NE

Change the Weather History Date:

Thursday, March 21, 2013

  Actual Average Record
Temperature  
Mean Temperature 32 °F 41 °F  
Max Temperature 38 °F 53 °F 83 °F (1988)
Min Temperature 25 °F 29 °F 0 °F (1955)
Degree Days  
Heating Degree Days 33 24  
Month to date heating degree days 618 578  
Since 1 July heating degree days 5087 5339  
Cooling Degree Days 0 0  
Month to date cooling degree days 0 0  
Year to date cooling degree days 0 0  
Moisture  
Dew Point 20 °F    
Average Humidity 64    
Maximum Humidity 75    
Minimum Humidity 53    
Precipitation  
Precipitation 0.02 in 0.06 in 1.98 in (1979)
Month to date precipitation 0.86 1.10  
Year to date precipitation 1.99 2.31  
Snow  
Snow T in 0.20 in 11.00 in (1897)
Month to date snowfall 3.5 3.9  
Since 1 July snowfall 24.9 26.0  
Snow Depth T in    
Sea Level Pressure  
Sea Level Pressure 29.95 in    
Wind  
Wind Speed 14 mph (ESE)    
Max Wind Speed 23 mph    
Max Gust Speed 28 mph    
Visibility 9 miles    
Events Snow    
T = Trace of Precipitation, MM = Missing Value Source: NWS Daily Summary

Daily Weather History Graph

Daily Weather History Graph

Search for Another Location

Airport:

Trip Planner

Search our weather history database for the weather conditions in past years. The results will help you decide how hot, cold, wet, or windy it might be!

Date:

Astronomy

Mar. 21, 2013 Rise Set
Actual Time 7:34 AM CDT 7:46 PM CDT
Civil Twilight 7:07 AM CDT 8:14 PM CDT
Nautical Twilight 6:34 AM CDT 8:46 PM CDT
Astronomical Twilight 6:02 AM CDT 9:19 PM CDT
Moon 2:15 PM CDT (3/21) 3:59 AM CDT (3/21)
Length of Visible Light 13h 07m
Length of Day
12h 12m
Waxing Gibbous, 69% of the Moon is Illuminated
Mar 21
Waxing Gibbous
Mar 27
Full
Apr 2
Last Quarter
Apr 10
New
Apr 18
First Quarter

Hourly Weather History & Observations

Time (CDT) Temp. Windchill Dew Point Humidity Pressure Visibility Wind Dir Wind Speed Gust Speed Precip Events Conditions
12:53 AM 30.0 °F 20.0 °F 16.0 °F 56% 30.07 in 10.0 mi ESE 12.7 mph - N/A   Partly Cloudy
1:53 AM 28.9 °F 18.2 °F 16.0 °F 58% 30.03 in 10.0 mi ESE 13.8 mph 23.0 mph N/A   Overcast
2:53 AM 28.9 °F 18.6 °F 15.1 °F 56% 30.02 in 10.0 mi ESE 12.7 mph - N/A   Overcast
3:53 AM 28.9 °F 17.3 °F 14.0 °F 54% 29.99 in 10.0 mi ESE 16.1 mph - N/A   Overcast
4:53 AM 28.0 °F 17.0 °F 15.1 °F 58% 29.98 in 10.0 mi ESE 13.8 mph - N/A   Overcast
5:53 AM 27.0 °F 16.1 °F 16.0 °F 63% 29.99 in 5.0 mi ESE 12.7 mph - 0.00 in Snow Light Snow
6:11 AM 26.6 °F 14.7 °F 17.6 °F 69% 29.94 in 3.0 mi ESE 15.0 mph - 0.00 in Snow Light Snow
6:23 AM 24.8 °F 11.9 °F 19.4 °F 80% 29.93 in 3.0 mi ESE 16.1 mph - 0.00 in Snow Light Snow
6:53 AM 26.1 °F 14.5 °F 18.0 °F 71% 29.96 in 10.0 mi ESE 13.8 mph - 0.00 in   Overcast
7:53 AM 26.1 °F 15.0 °F 18.0 °F 71% 29.97 in 10.0 mi ESE 12.7 mph - N/A   Overcast
8:53 AM 26.1 °F 14.5 °F 18.0 °F 71% 29.97 in 10.0 mi ESE 13.8 mph - N/A   Overcast
9:53 AM 27.0 °F 14.3 °F 17.1 °F 66% 29.96 in 10.0 mi ESE 17.3 mph - N/A   Overcast
10:53 AM 28.9 °F 17.7 °F 17.1 °F 61% 29.96 in 10.0 mi ESE 15.0 mph - N/A   Mostly Cloudy
11:53 AM 30.9 °F 19.8 °F 18.0 °F 59% 29.94 in 10.0 mi ESE 16.1 mph 24.2 mph N/A   Scattered Clouds
12:53 PM 34.0 °F 23.0 °F 19.9 °F 56% 29.92 in 10.0 mi ESE 18.4 mph - N/A   Overcast
1:53 PM 36.0 °F 26.7 °F 23.0 °F 59% 29.90 in 10.0 mi SE 15.0 mph - N/A   Partly Cloudy
2:48 PM 35.6 °F 25.9 °F 24.8 °F 65% 29.83 in 10.0 mi ESE 16.1 mph 27.6 mph N/A   Overcast
2:53 PM 35.1 °F 24.1 °F 24.1 °F 64% 29.88 in 10.0 mi East 19.6 mph 27.6 mph N/A   Overcast
3:53 PM 34.0 °F 23.4 °F 24.1 °F 67% 29.88 in 10.0 mi East 17.3 mph 23.0 mph N/A   Overcast
4:53 PM 37.0 °F 27.4 °F 26.1 °F 65% 29.88 in 10.0 mi ESE 17.3 mph 23.0 mph N/A   Overcast
5:53 PM 35.1 °F 25.5 °F 25.0 °F 67% 29.88 in 10.0 mi East 15.0 mph - N/A   Partly Cloudy
6:53 PM 32.0 °F 21.6 °F 24.1 °F 73% 29.91 in 10.0 mi East 15.0 mph - N/A   Clear
7:53 PM 30.9 °F 20.7 °F 23.0 °F 72% 29.93 in 10.0 mi East 13.8 mph - N/A   Clear
8:53 PM 30.0 °F 19.5 °F 21.9 °F 72% 29.94 in 10.0 mi East 13.8 mph - N/A   Mostly Cloudy
9:53 PM 30.0 °F 20.0 °F 19.9 °F 66% 29.96 in 10.0 mi ESE 12.7 mph - N/A   Overcast
10:53 PM 28.9 °F 18.6 °F 21.0 °F 72% 29.98 in 10.0 mi East 12.7 mph - N/A   Overcast
11:53 PM 28.9 °F 20.4 °F 19.0 °F 67% 29.99 in 10.0 mi East 9.2 mph - N/A   Overcast